Location: São Paulo
(23.5507°S, 46.6334°W)
Time: 23:56:13
(UTC-03:00)

Hubble Space Telescope - Pass Details

Date: 30 July 2021
Orbit: 535 x 539 km, 28.5° (Epoch: 23 September)

Event Time Altitude Azimuth Distance (km) Brightness Sun altitude
Exits shadow 06:10:42 10° 258° (WSW) 1,826 2.8 -7.8°
Reaches altitude 10° 06:10:48 10° 258° (WSW) 1,793 2.7 -7.7°
Maximum altitude 06:14:46 43° 185° (S) 761 1.4 -6.9°
Drops below altitude 10° 06:18:45 10° 113° (ESE) 1,797 4.3 -6.0°
Sets 06:21:06 0° 106° (ESE) 2,690 5.4 -5.5°
